Wind_Speed
33 33 34 33 33 32 32 32 32 31 31 30 31 31 31 31 31 31 31 30 30 30 30 30 30 31 30 31 32 33 34 35 36 38 38 39 39 40 41 41 41 42 42 42
34 33 33 33 33 34 33 32 32 32 31 30 31 31 31 32 31 31 30 30 30 30 30 31 31 31 31 31 32 33 33 33 34 35 36 37 37 38 38 38 39 40 40 41
33 33 33 32 31 32 33 32 32 32 30 30 30 30 31 31 31 31 31 31 31 31 31 31 31 31 31 32 32 33 32 32 33 34 34 34 35 35 35 36 36 36 36 37
34 33 34 32 31 31 31 32 31 31 31 30 30 30 31 31 32 31 31 31 31 31 31 31 31 31 31 31 31 32 32 33 34 34 34 35 35 35 34 33 33 33 33 34
33 34 33 31 31 30 30 30 30 30 30 30 30 30 31 31 31 31 31 31 30 30 30 30 30 31 31 31 31 31 32 33 33 33 33 33 33 32 31 31 31 31 32 32
31 32 31 30 29 29 30 30 29 29 29 30 30 30 31 31 31 31 30 29 29 29 30 30 30 30 30 31 31 31 31 32 32 32 32 32 31 31 31 31 31 31 30 30
30 30 30 29 28 29 30 30 28 28 28 29 30 30 30 29 29 29 28 28 28 29 29 30 30 30 30 30 30 30 31 31 31 31 31 31 31 30 30 30 30 29 28 28
30 30 30 29 28 28 28 28 28 29 29 29 30 29 29 28 28 27 27 27 27 28 28 29 29 29 29 29 29 29 30 30 30 29 29 29 29 29 29 28 28 27 26 26
30 30 30 29 29 28 28 29 29 30 30 30 29 29 28 28 28 28 28 27 27 27 28 28 28 27 27 27 28 28 28 28 28 27 27 28 29 29 28 28 27 27 27 26
31 30 30 31 31 30 30 30 30 30 30 30 29 29 28 28 28 27 27 27 27 27 27 27 26 26 26 26 26 27 27 27 27 27 28 29 29 28 28 28 27 26 26 26
31 30 31 31 32 32 31 31 31 30 30 29 29 28 28 28 28 27 27 27 27 26 26 26 26 27 26 26 27 27 27 27 27 27 28 28 27 28 28 27 27 26 26 26
30 29 30 30 31 31 31 31 30 29 29 29 29 29 28 28 28 28 27 26 26 26 25 25 26 26 27 27 27 27 28 28 27 27 26 26 26 26 26 26 26 27 26 26
30 30 30 30 31 31 30 30 30 29 29 29 29 28 28 28 28 27 27 26 25 25 25 25 25 26 27 27 27 27 27 27 26 26 25 25 25 25 25 24 25 25 25 25
28 29 29 29 29 29 29 29 28 28 28 28 28 27 27 26 26 26 26 26 25 24 24 24 25 25 25 25 26 26 26 25 25 24 23 23 23 23 23 22 22 22 22 23
25 26 26 26 26 26 26 26 26 26 27 27 27 26 26 26 26 26 26 25 25 25 25 25 25 24 24 24 25 24 24 23 23 22 21 21 21 21 21 21 21 20 21 22
23 24 24 24 24 24 24 25 25 25 26 26 26 26 26 26 26 25 25 25 25 25 25 25 24 24 24 23 24 23 23 22 22 21 21 20 20 21 21 20 19 19 20 21
21 21 22 23 24 24 24 24 24 24 25 25 25 25 25 25 25 25 25 25 25 25 25 25 25 24 23 23 23 23 22 22 21 20 20 20 19 19 19 19 19 19 19 19
20 21 21 22 22 23 23 24 24 24 24 24 24 24 24 24 24 24 24 24 24 24 24 24 24 24 23 23 22 22 21 20 20 19 19 18 18 18 18 18 17 17 18 18
20 21 21 20 21 22 23 23 23 23 23 23 24 24 24 23 23 23 23 23 24 24 24 24 24 23 22 22 22 21 20 19 19 18 18 17 17 17 17 17 16 16 16 16
19 20 20 21 21 22 23 23 23 23 23 23 23 22 22 22 22 22 22 23 23 23 24 23 23 22 22 22 21 20 19 18 17 17 16 16 16 16 16 15 15 16 16 15
19 19 20 21 22 22 22 23 22 22 22 21 21 21 21 21 21 21 21 21 21 22 22 22 22 22 21 21 19 18 17 16 16 15 15 15 15 15 14 14 14 14 14 14
18 19 19 20 20 21 20 20 20 20 20 20 20 20 20 20 20 20 20 20 20 21 21 21 21 20 19 18 17 16 15 15 14 14 14 14 14 13 13 13 13 12 12 12
18 18 18 18 18 18 19 19 19 19 19 19 19 19 19 19 19 19 19 20 20 19 19 19 19 18 17 16 15 14 14 14 14 14 14 13 13 13 12 12 12 11 11 11
18 18 17 17 16 16 17 17 17 17 18 19 19 19 19 19 18 19 18 18 18 18 17 16 16 16 16 15 14 14 14 13 13 13 13 13 13 12 12 12 12 11 11 10
17 17 16 16 16 16 16 16 16 16 16 16 17 17 17 18 18 18 18 18 18 17 16 15 15 15 15 15 14 14 13 13 13 14 14 14 13 13 12 12 12 11 11 10
16 15 15 15 15 15 14 14 15 14 14 15 15 16 16 17 17 17 17 17 16 16 16 15 15 15 14 14 14 14 14 14 14 15 14 14 13 13 13 12 12 12 11 11
15 15 15 14 14 14 14 14 14 14 14 15 15 15 15 16 16 16 16 16 16 15 15 15 14 14 14 14 14 14 14 14 15 15 15 14 14 13 13 13 13 12 11 11
Wind_Direction
265 265 264 263 262 262 264 266 267 269 270 272 274 275 276 277 278 278 278 278 278 278 278 278 279 278 277 277 277 277 277 277 277 279 278 277 276 276 277 276 275 274 273 272
263 263 263 262 262 263 263 265 267 267 268 270 273 274 275 276 278 279 278 279 279 279 278 278 278 279 277 277 277 279 279 279 280 281 280 278 278 278 278 277 276 275 274 274
262 264 264 263 264 265 265 265 267 266 267 269 271 274 275 277 279 280 278 279 278 279 279 279 280 280 278 279 280 281 281 281 281 281 282 281 280 280 280 279 278 278 276 274
264 264 263 265 265 265 265 264 266 268 267 269 272 274 276 277 279 280 280 279 279 279 278 280 281 281 281 282 283 282 283 283 282 282 283 283 282 282 282 282 280 279 277 276
264 265 266 265 265 265 265 263 265 267 269 269 272 275 277 279 280 282 281 280 278 279 279 281 283 283 281 282 282 283 283 284 284 284 283 283 283 283 282 282 282 281 280 278
263 265 267 267 266 266 265 263 264 267 269 270 272 275 277 279 280 281 279 279 278 279 280 282 284 285 282 281 280 281 282 284 285 285 284 284 282 281 282 283 283 283 281 279
260 263 266 266 266 266 265 266 266 267 269 271 272 274 277 279 280 280 278 279 279 280 281 283 284 284 282 281 280 281 282 283 285 285 284 283 282 282 283 283 283 282 280 279
260 263 266 264 266 267 268 266 267 269 270 272 272 274 278 280 281 280 278 278 278 280 282 283 283 282 281 281 282 283 284 285 285 285 284 284 284 284 284 283 283 282 280 278
261 263 264 264 266 267 267 267 268 271 272 272 273 274 277 279 280 280 279 278 279 280 281 282 282 282 282 282 282 284 285 285 284 284 284 284 285 284 283 283 283 282 280 278
259 260 262 263 264 267 267 268 270 273 273 272 273 274 275 278 280 281 280 279 280 281 281 281 281 281 282 282 283 284 285 285 285 285 285 286 285 284 283 283 282 281 280 279
259 261 262 262 263 266 267 269 271 273 273 272 271 273 274 276 278 279 279 280 279 280 279 280 281 281 282 282 283 285 286 287 287 286 287 286 285 283 282 282 281 281 280 280
261 262 263 262 262 264 266 267 269 271 271 270 270 272 273 275 276 277 277 278 278 278 278 279 280 281 282 282 283 284 286 287 287 287 286 286 286 284 282 281 281 280 279 280
261 261 264 264 264 265 266 267 268 269 271 270 270 270 273 274 274 274 275 275 276 277 278 278 280 281 283 283 283 284 286 287 288 288 286 286 284 282 282 281 281 279 278 280
262 263 265 265 266 265 266 266 267 268 270 270 269 269 271 272 273 273 273 273 274 276 277 279 282 282 282 283 284 285 286 287 288 288 286 285 283 283 283 283 281 280 281 281
264 264 264 265 264 264 264 264 265 267 269 270 269 269 269 272 273 273 272 272 273 275 278 280 282 282 283 283 284 286 287 288 288 288 286 284 283 284 285 285 284 281 282 282
265 263 263 263 263 263 263 264 266 267 269 269 269 268 269 271 273 272 272 272 273 276 277 279 280 281 282 283 283 285 287 288 288 287 286 283 283 285 286 287 286 284 285 283
268 265 263 263 262 262 263 264 264 266 268 269 269 268 268 269 271 271 271 272 273 274 275 277 278 279 279 281 282 284 286 286 286 286 284 283 283 285 287 287 286 287 287 284
271 267 264 263 263 264 265 266 266 266 266 266 265 266 267 269 270 270 270 272 273 273 275 276 277 277 278 279 280 282 284 285 285 284 284 284 286 287 287 287 286 288 289 287
272 270 269 268 266 266 266 266 267 266 265 265 265 266 268 268 269 269 270 271 272 272 273 275 276 277 278 279 280 281 281 282 283 284 283 284 286 287 287 287 287 289 291 289
275 273 271 270 271 270 268 267 266 266 266 266 266 266 266 267 268 269 271 272 272 272 272 273 275 275 277 278 280 280 279 279 280 282 283 286 287 288 288 288 288 290 291 289
277 276 274 273 273 271 270 269 267 265 264 264 266 266 266 266 267 269 271 273 274 273 272 272 274 276 277 277 278 278 276 276 276 278 283 287 288 288 288 288 289 290 290 289
277 277 277 276 274 273 271 269 266 264 264 264 265 265 265 267 268 270 272 274 274 274 273 273 274 275 276 276 276 274 272 272 273 277 282 286 288 287 286 286 287 289 290 289
278 279 279 279 277 275 273 270 267 266 264 265 266 266 266 267 268 269 272 274 275 275 275 273 272 272 272 272 270 267 268 269 273 277 281 283 286 286 283 283 285 287 289 288
279 279 278 278 277 275 274 273 270 270 269 268 267 266 265 265 267 269 271 272 273 272 271 271 270 269 267 266 264 263 265 268 272 276 278 279 281 283 281 280 281 283 284 284
280 277 275 276 276 276 275 274 273 274 273 270 269 269 268 266 266 268 268 270 270 269 268 268 268 267 265 262 260 260 263 266 271 275 276 277 277 279 279 277 278 278 279 282
280 278 277 277 277 276 276 275 274 273 273 271 270 269 267 266 265 266 266 267 267 266 266 266 267 266 264 261 259 260 263 267 271 274 274 274 274 275 275 273 273 274 277 279
278 278 276 275 275 276 277 277 276 274 273 272 271 270 268 265 265 265 264 265 266 265 264 264 264 264 261 261 262 262 265 270 274 274 272 271 270 271 272 270 270 271 273 276
Height
5586 5587 5587 5588 5590 5590 5591 5592 5592 5594 5595 5596 5594 5593 5593 5593 5592 5592 5592 5591 5590 5589 5588 5587 5586 5585 5585 5584 5584 5584 5583 5582 5581 5580 5580 5579 5577 5576 5575 5574 5573 5573 5572 5572
5577 5578 5578 5579 5581 5581 5582 5583 5584 5585 5587 5588 5586 5585 5585 5585 5584 5584 5584 5583 5582 5581 5580 5579 5578 5577 5577 5576 5575 5575 5574 5573 5571 5570 5569 5568 5567 5565 5564 5563 5562 5561 5561 5561
5568 5569 5568 5570 5574 5574 5574 5576 5576 5577 5580 5579 5578 5578 5578 5577 5577 5576 5575 5574 5573 5572 5571 5570 5570 5569 5568 5567 5567 5566 5565 5563 5562 5561 5560 5558 5557 5555 5554 5553 5551 5551 5550 5550
5559 5560 5559 5566 5565 5565 5566 5567 5568 5568 5570 5570 5570 5570 5570 5569 5569 5568 5567 5566 5565 5564 5563 5562 5561 5560 5559 5559 5558 5557 5555 5554 5553 5552 5550 5549 5547 5545 5544 5543 5542 5541 5540 5540
5550 5550 5551 5556 5557 5557 5558 5559 5560 5560 5561 5562 5562 5562 5562 5561 5560 5559 5558 5557 5557 5556 5555 5554 5553 5552 5551 5550 5549 5548 5547 5546 5544 5543 5541 5539 5538 5536 5535 5534 5533 5532 5531 5530
5542 5542 5544 5549 5550 5549 5550 5550 5552 5553 5553 5553 5553 5554 5555 5553 5552 5551 5550 5549 5548 5548 5547 5546 5545 5543 5543 5541 5540 5539 5538 5537 5535 5534 5532 5531 5529 5528 5526 5525 5524 5523 5522 5521
5535 5534 5536 5540 5541 5542 5543 5544 5544 5544 5545 5545 5545 5546 5546 5544 5543 5543 5542 5541 5540 5539 5538 5537 5536 5535 5534 5533 5532 5531 5530 5528 5527 5525 5524 5522 5521 5519 5518 5517 5516 5514 5514 5513
5527 5527 5532 5532 5533 5534 5535 5535 5535 5536 5536 5537 5537 5537 5537 5536 5535 5534 5534 5533 5532 5532 5530 5529 5528 5527 5526 5525 5524 5523 5521 5520 5518 5517 5515 5514 5512 5511 5510 5508 5507 5506 5505 5505
5520 5522 5523 5523 5524 5525 5526 5527 5527 5528 5528 5528 5528 5528 5528 5528 5527 5527 5526 5525 5524 5524 5523 5522 5520 5519 5518 5517 5516 5515 5513 5511 5510 5509 5507 5506 5504 5503 5501 5500 5499 5498 5497 5497
5510 5513 5514 5514 5515 5517 5518 5518 5519 5519 5520 5520 5520 5520 5520 5520 5519 5519 5518 5517 5517 5516 5515 5514 5513 5512 5511 5510 5508 5507 5505 5504 5502 5501 5499 5498 5496 5495 5493 5492 5491 5490 5489 5489
5501 5504 5505 5506 5507 5508 5509 5510 5510 5511 5511 5511 5511 5511 5511 5511 5511 5511 5510 5510 5509 5508 5507 5506 5505 5504 5503 5502 5501 5499 5498 5496 5495 5493 5491 5489 5488 5486 5485 5484 5483 5482 5482 5481
5494 5496 5496 5497 5498 5499 5500 5501 5502 5503 5503 5503 5503 5503 5503 5503 5503 5503 5502 5502 5501 5500 5500 5499 5498 5497 5496 5494 5493 5492 5490 5488 5487 5485 5483 5482 5480 5479 5477 5476 5475 5474 5473 5473
5485 5486 5487 5489 5490 5491 5492 5493 5494 5494 5495 5495 5495 5495 5495 5495 5495 5495 5494 5494 5493 5493 5492 5491 5490 5489 5488 5486 5485 5484 5482 5480 5479 5477 5476 5474 5473 5471 5470 5469 5467 5467 5466 5465
5477 5478 5479 5481 5482 5483 5484 5485 5485 5486 5486 5486 5486 5486 5487 5487 5487 5486 5486 5486 5485 5485 5484 5483 5482 5481 5480 5479 5477 5476 5474 5473 5471 5469 5468 5467 5465 5464 5462 5461 5461 5460 5459 5458
5470 5470 5472 5473 5474 5475 5476 5476 5477 5478 5478 5478 5478 5478 5478 5479 5479 5478 5478 5478 5478 5477 5477 5476 5475 5474 5472 5471 5470 5468 5467 5465 5464 5462 5461 5460 5458 5457 5456 5455 5454 5453 5453 5452
5463 5463 5464 5465 5466 5467 5468 5469 5469 5470 5470 5470 5470 5470 5470 5471 5471 5470 5470 5470 5470 5470 5469 5468 5467 5466 5465 5464 5462 5461 5460 5458 5457 5456 5454 5453 5452 5451 5450 5449 5448 5447 5447 5446
5457 5457 5458 5458 5459 5460 5460 5461 5461 5461 5462 5462 5462 5462 5462 5463 5463 5463 5463 5462 5462 5462 5461 5461 5460 5459 5458 5456 5455 5454 5453 5452 5451 5449 5448 5447 5446 5445 5444 5443 5442 5442 5441 5440
5450 5450 5450 5451 5451 5452 5453 5453 5453 5454 5454 5454 5454 5454 5454 5455 5455 5455 5455 5455 5454 5454 5454 5453 5452 5451 5450 5449 5448 5447 5446 5445 5444 5443 5442 5441 5440 5440 5439 5438 5437 5436 5436 5435
5444 5444 5444 5444 5444 5444 5445 5445 5446 5446 5446 5446 5447 5447 5447 5447 5447 5447 5447 5447 5447 5446 5446 5445 5444 5443 5443 5442 5441 5440 5439 5439 5438 5438 5437 5436 5435 5434 5434 5433 5432 5432 5431 5430
5438 5438 5438 5437 5437 5437 5438 5438 5438 5438 5439 5439 5439 5439 5440 5440 5440 5440 5440 5440 5439 5439 5438 5438 5437 5436 5436 5435 5434 5433 5433 5433 5433 5432 5432 5431 5431 5430 5429 5429 5428 5427 5426 5426
5432 5432 5432 5431 5431 5431 5431 5431 5431 5431 5432 5432 5432 5433 5433 5433 5433 5433 5433 5433 5432 5432 5431 5430 5430 5429 5429 5428 5427 5427 5427 5427 5427 5427 5427 5427 5426 5426 5425 5424 5424 5423 5422 5422
5426 5426 5425 5425 5424 5424 5424 5424 5424 5424 5425 5426 5426 5426 5426 5427 5427 5427 5427 5426 5426 5425 5424 5424 5423 5423 5422 5422 5422 5422 5422 5422 5423 5423 5423 5423 5422 5422 5421 5421 5420 5420 5419 5419
5421 5420 5419 5419 5418 5418 5418 5418 5418 5418 5419 5419 5420 5420 5420 5420 5420 5420 5420 5420 5419 5419 5418 5417 5417 5417 5417 5417 5417 5418 5418 5418 5419 5419 5419 5419 5418 5418 5418 5418 5417 5417 5416 5416
5415 5415 5414 5413 5413 5413 5413 5413 5413 5413 5413 5413 5413 5414 5414 5414 5414 5414 5414 5414 5414 5413 5413 5412 5412 5412 5412 5413 5413 5414 5414 5415 5415 5415 5415 5415 5415 5414 5414 5414 5414 5414 5413 5413
5410 5410 5409 5409 5408 5408 5408 5408 5408 5408 5407 5407 5407 5408 5408 5408 5409 5409 5408 5408 5408 5408 5407 5407 5407 5407 5408 5408 5409 5410 5410 5411 5411 5411 5411 5411 5411 5411 5411 5411 5410 5410 5410 5410
5405 5405 5404 5404 5403 5403 5403 5403 5403 5403 5403 5402 5402 5402 5402 5402 5403 5403 5403 5403 5402 5402 5402 5402 5402 5403 5403 5404 5405 5406 5406 5407 5407 5407 5407 5407 5407 5407 5407 5407 5407 5407 5407 5407
5400 5400 5400 5399 5399 5399 5399 5399 5398 5398 5398 5397 5397 5397 5397 5397 5397 5397 5397 5397 5397 5397 5397 5397 5398 5398 5399 5400 5401 5401 5402 5402 5402 5402 5402 5402 5402 5402 5402 5403 5403 5403 5404 5404